NOAA 16 DEB, 41219

Orbit data source: Space-Track

NOAA 16 DEB, 41219 is space debris in SSO originally from a launch on Thu, 21 Sep 2000 UTC launched from the Air Force Western Test Range (AFWTR). Debris objects in space refer to the collection of defunct objects orbiting the Earth. Examples of debris include non-operational satellites, rocket bodies, and fragments generated from explosions, collisions, or faulty payload assembly.

Loading next visibility...
Identifier
41219, 2000-055DY
Orbit
SSO
Country
Flag of USUS
Related business
Manufacturer
Unknown
Mission
Spacecraft
Bus & Motor
Unknown
Mass
Unknown
Launch date (UTC)
2000-09-21 (26 years ago)
Launch vehicle
Unknown
Launch site
Air Force Western Test Range (AFWTR)
Object type
Payload
Rocket body
Debris
Shape & HBR
Unknown shape, 0.1 m
Radar Cross Section
Medium (>0.1 m² and <1 m²)

Expand to show TLE details & history
Last TLE update: 22 hours ago

TLE from 22 hours ago
0 NOAA 16 DEB
1 41219U 00055DY  26208.94008057  .00003038  00000-0  12211-2 0  9991
2 41219  98.6161 262.5740 0007369  52.1457 308.0391 14.28841522549879
Epoch: 2026-07-27T22:33Z
TLE epoch observation values (Epoch: 2026-07-27T22:33:42.961Z)
Latitude
0.00005°
Longitude
-21.47146°
Altitude
795.28 km
Speed
7.458 km/s
True Right ascension
17h 30m 17s
True Declination
0° 00' 00"
Sunlit
Object was in full shadow at epoch
Visualization orbit readout
Latitude
Unknown
Longitude
Unknown
Altitude
Unknown
Speed
Unknown
Apparent Right ascension
Unknown
Apparent Declination
Unknown
Sunlit
N/A
Visualization observer readout
Local Sidereal Time
09:32:46
Azimuth
Unknown
Elevation
Unknown
Doppler factor
Unknown
Orbital elements
Apogee altitude
798.032 km
Perigee altitude
787.464 km
Semi-major axis
7,170.885 km
Eccentricity
0.00074
Inclination
98.6161°
RAAN
262.574°
Arg. of periapsis
52.1457°
True anomaly
307.97256°
Mean anomaly
308.0391°
Eccentric anomaly
308.00583°
Mean motion
3.57424 °/min
Orbital period
100.72 mins
BSTAR
0.0012211
Loading maneuver chart data...
Computing Atmospheric mass density...
Loading historical data...
Loading historical data...
Loading historical data...
Loading historical data...
Loading historical data...
Loading historical data...
Loading historical data...

Documentation

Showing up to 5 results
|